Regional Weather Roundup
Issued by NWS

Home | Current Version | Previous Version | Text Only | Print | Product List | Glossary Off
Versions: 1 2 3 4 5 6 7 8 9 10 11 12 13 14 15 16 17 18 19 20 21 22 23 24 25 26 27 28 29 30 31 32 33 34 35 36 37 38 39 40 41 42 43 44 45 46 47 48 49 50

000
ASUS43 KLOT 220106
RWRIL

ILLINOIS REGIONAL WEATHER ROUNDUP
NATIONAL WEATHER SERVICE CHICAGO/ROMEOVILLE IL
700 PM CST SUN DEC 21 2014

NOTE: "FAIR" INDICATES FEW OR NO CLOUDS BELOW 12,000 FEET WITH NO
SIGNIFICANT WEATHER AND/OR OBSTRUCTIONS TO VISIBILITY.

* THESE STATIONS ARE NOT UNDER NWS QUALITY CONTROL. THEY ALSO MAY NOT
  REPORT WEATHER SUCH AS PRECIPITATION OR FOG.

ILZ001-002-007-009-015-016-024-220200-
NORTHWEST ILLINOIS

CITY           SKY/WX    TMP DP  RH WIND       PRES   REMARKS
MOLINE         CLOUDY    36  31  82 SE14      29.97R WCI  27
STERLING*      CLOUDY    36  28  75 SE8G20    30.00S WCI  29
SAVANNA*       CLOUDY    37  31  81 SE13      29.98F WCI  28
$$

ILZ003-004-008-010-011-017-018-220200-
NORTH CENTRAL ILLINOIS

CITY           SKY/WX    TMP DP  RH WIND       PRES   REMARKS
ROCKFORD       CLOUDY    36  29  75 S16G24    30.03F WCI  26
FREEPORT*      CLOUDY    34  31  88 SE15      30.00S WCI  24
ROCHELLE*      CLOUDY    34  31  90 SE15      30.03S WCI  24
DE KALB*       CLOUDY    33  29  85 SE13G20   30.04F WCI  24
PERU*          CLOUDY    37  31  82 SE18      30.03F WCI  26
$$

ILZ005-006-012>014-019>023-220200-
NORTHEAST ILLINOIS

CITY           SKY/WX    TMP DP  RH WIND       PRES   REMARKS
CHICAGO-OHARE  CLOUDY    35  29  78 S10       30.08S WCI  27
CHICAGO-MIDWAY CLOUDY    38  30  73 S8        30.09S WCI  32
AURORA         CLOUDY    36  29  75 SE12      30.06F WCI  28
LANSING*       CLOUDY    36  29  78 SE10      30.11S WCI  28
JOLIET*        CLOUDY    35  30  82 SE6       30.08F WCI  30
WAUKEGAN       CLOUDY    35  28  75 SE10      30.07S WCI  27
DUPAGE AIRPORT CLOUDY    36  29  75 SE10      30.05F WCI  28
KANKAKEE*      CLOUDY    34  31  87 E7        30.09F WCI  28
WHEELING       CLOUDY    36  29  75 S10       30.09F WCI  28
MORRIS*        CLOUDY    36  32  85 SE8       30.06F WCI  30
ROMEOVILLE*    CLOUDY    35  30  82 SE7       30.07F WCI  29
NORTHERLY ISL    N/A     36  30  79 SE8         N/A  WCI  30
$$

LMZ740>746-220200-
SOUTHERN LAKE MICHIGAN

STATION/POSITION SKY/WX   TEMP    WIND        PRES    VSBY  WAVE
                          AIR SEA DIR/SP/G                  HT/PER
                          (F)     (DEG/KT/KT) (MB)    (MI)  (FT/S)
WAUKEGAN HARBOR            35     160/ 16/ 18   N/A
HARRISON CRIB              35     160/ 10/ 12   N/A
BURNHAM HARBOR             36     140/  7/ 10   N/A
CALUMET HARBOR             36     140/  9/ 12 1017.9F
$$

ILZ025>027-034>036-040-047-049-050-058-095>099-220200-
WEST-CENTRAL ILLINOIS

CITY           SKY/WX    TMP DP  RH WIND       PRES   REMARKS
QUINCY         CLOUDY    41  33  73 S14       29.95S
GALESBURG*     CLOUDY    36  32  85 SE7       29.98R WCI  31
MACOMB*        CLOUDY    37  34  88 SE13      30.00S WCI  29
JACKSONVILLE*  CLOUDY    41  32  72 SE12      30.00R
PITTSFIELD*    CLOUDY    40  35  80 SE8       29.99S
$$

ILZ028>032-037-038-041>044-048-051>054-059>061-220200-
CENTRAL ILLINOIS

CITY           SKY/WX    TMP DP  RH WIND       PRES   REMARKS
PONTIAC        CLOUDY    34  32  91 SE12      30.06F WCI  26
BLOOMINGTON    PTCLDY    34  30  85 SE13      30.04F WCI  25
DECATUR        PTCLDY    34  29  82 SE13      30.05F WCI  25
PEORIA         CLOUDY    38  30  73 SE12      30.02F WCI  30
LACON*         CLOUDY    34  30  84 SE13      30.02F WCI  25
LINCOLN*       CLOUDY    36  32  85 SE7       30.04S WCI  30
SPRINGFIELD    CLOUDY    39  30  70 SE13      30.01F WCI  31
TAYLORVILLE    CLOUDY    36  30  80 SE12      30.03F WCI  27
$$

ILZ033-039-045-046-055>057-062-063-220200-
EAST-CENTRAL ILLINOIS

CITY           SKY/WX    TMP DP  RH WIND       PRES   REMARKS
CHAMPAIGN      PTCLDY    31  28  89 SE8       30.07F WCI  23
DANVILLE*      PTCLDY    32  29  88 SE6       30.07S WCI  26
RANTOUL*       CLEAR     33  30  89 SE8       30.07F WCI  26
MATTOON        PTCLDY    34  28  79 SE12      30.06F WCI  25
PARIS*         FAIR      33  31  94 CALM      30.10F
$$

ILZ079-100>102-220200-
SOUTHWEST ILLINOIS

CITY           SKY/WX    TMP DP  RH WIND       PRES   REMARKS
BELLEVILLE     CLOUDY    41  34  76 SE9       30.03S
CAHOKIA*       CLOUDY    42  32  67 SE10      30.02S
SPARTA*        CLOUDY    40  32  74 SE5       30.05S
$$

ILZ064>066-069>071-074>076-080>082-084>086-088>090-092>094-220200-
SOUTH-CENTRAL ILLINOIS

CITY           SKY/WX    TMP DP  RH WIND       PRES   REMARKS
CARBONDALE     MOCLDY    38  29  70 E8        30.05F WCI  32
CAIRO*         CLEAR     37  32  82 NE3       30.04F
EFFINGHAM*     MOCLDY    35  28  74 E8        30.08F WCI  29
MARION         PTCLDY    39  30  70 E3        30.05F
MT. VERNON     PTCLDY    37  28  70 E5        30.08S WCI  34
CENTRALIA*     CLOUDY    38  30  72 SE6       30.05S WCI  34
SALEM*         PTCLDY    40  31  69 SE6       30.07R
METROPOLIS*    CLEAR     33  30  90 E3        30.04F
$$

ILZ067-068-072-073-078-083-087-091-220200-
SOUTHEAST ILLINOIS

CITY           SKY/WX    TMP DP  RH WIND       PRES   REMARKS
LAWRENCEVILLE  PTCLDY    32  28  85 E9        30.10F FOG     WCI  24
FLORA*         PTCLDY    34  30  86 SE7       30.09R WCI  28
FAIRFIELD*     CLEAR     35  29  80 CALM      30.08S
HARRISBURG*    CLEAR     36  30  79 CALM      30.09R
ROBINSON*      PTCLDY    29  28  92 E6        30.11F WCI  23
CARMI*         CLEAR     34  31  90 E3        30.08R
$$

ABBREVIATIONS USED IN REMARKS
   TC - TEMPERATURE IN CELSIUS
  WCI - WIND CHILL INDEX
   HX - HEAT INDEX
  VSB - VISIBILITY
$$




USA.gov is the U.S. government's official web portal to all federal, state and local government web resources and services.